Fort Leonard Wood, MO

9:46 PM CDT on May 21, 2018 (GMT -0500)
Waynesville Regional At Forney Field

Weather History for KTBN - September, 2012

Change the Weather History Date:

Friday, September 28, 2012

  Actual Average Record
Temperature  
Mean Temperature 60 °F -  
Max Temperature 67 °F 73 °F 86 °F (1998)
Min Temperature 54 °F 53 °F 44 °F (1996)
Degree Days  
Heating Degree Days 4    
Growing Degree Days 10 (Base 50)    
Moisture  
Dew Point 64 °F    
Average Humidity 99    
Maximum Humidity 100    
Minimum Humidity 78    
Precipitation  
Precipitation 0.43 in - - ()
Sea Level Pressure  
Sea Level Pressure 30.10 in    
Wind  
Wind Speed 4 mph (NE)    
Max Wind Speed 9 mph    
Max Gust Speed -    
Visibility 3 miles    
Events Fog , Rain    
Averages and records for this station are not official NWS values.
T = Trace of Precipitation, MM = Missing Value Source: NWS Daily Summary

Daily Weather History Graph

Daily Weather History Graph

Search for Another Location

Airport or City:

Astronomy

Sep. 28, 2012 Rise Set
Actual Time 7:01 AM CDT 6:55 PM CDT
Civil Twilight 6:35 AM CDT 7:21 PM CDT
Nautical Twilight 6:05 AM CDT 7:51 PM CDT
Astronomical Twilight 5:34 AM CDT 8:22 PM CDT
Moon 5:57 PM CDT (9/28) 5:33 AM CDT (9/28)
Length of Visible Light 12h 45m
Length of Day
11h 53m
Waxing Gibbous, 98% of the Moon is Illuminated
Sep 28
Waxing Gibbous
Sep 29
Full
Oct 8
Last Quarter
Oct 15
New
Oct 21
First Quarter

Hourly Weather History & Observations

Time (CDT) Temp. Dew Point Humidity Pressure Visibility Wind Dir Wind Speed Gust Speed Precip Events Conditions
12:20 AM 66.2 °F 66.2 °F 100% 30.09 in 5.0 mi ENE 3.5 mph - N/A   Overcast
12:30 AM 66.2 °F 66.2 °F 100% 30.09 in 2.5 mi ENE 5.8 mph - N/A   Overcast
12:35 AM 66.2 °F 66.2 °F 100% 30.08 in 1.8 mi ENE 5.8 mph - N/A   Overcast
12:45 AM 66.2 °F 66.2 °F 100% 30.09 in 1.8 mi ENE 3.5 mph - N/A   Overcast
12:49 AM 66.2 °F 66.2 °F 100% 30.08 in 1.8 mi ENE 3.5 mph - N/A   Light Drizzle
12:53 AM 66.2 °F 66.2 °F 100% 30.08 in 1.5 mi East 3.5 mph - N/A   Light Drizzle
12:55 AM 66.2 °F 66.2 °F 100% 30.08 in 1.5 mi East 4.6 mph - N/A   Light Drizzle
12:56 AM 66.2 °F 66.2 °F 100% 30.08 in 1.2 mi East 4.6 mph - N/A   Light Drizzle
1:01 AM 66.2 °F 66.2 °F 100% 30.08 in 1.2 mi East 5.8 mph - N/A   Overcast
1:13 AM 66.2 °F 66.2 °F 100% 30.08 in 1.2 mi East 4.6 mph - N/A   Light Drizzle
1:18 AM 66.2 °F 66.2 °F 100% 30.08 in 1.0 mi East 4.6 mph - N/A   Light Drizzle
1:23 AM 66.2 °F 66.2 °F 100% 30.08 in 1.2 mi East 4.6 mph - N/A   Light Drizzle
1:30 AM 66.2 °F 66.2 °F 100% 30.08 in 1.0 mi ESE 5.8 mph - N/A   Light Drizzle
1:32 AM 66.2 °F 66.2 °F 100% 30.08 in 1.0 mi East 5.8 mph - N/A   Light Drizzle
1:42 AM 66.2 °F 66.2 °F 100% 30.08 in 1.0 mi East 3.5 mph - N/A   Light Drizzle
1:46 AM 66.2 °F 66.2 °F 100% 30.08 in 1.2 mi East 3.5 mph - N/A Rain Light Rain
1:55 AM 66.0 °F 66.0 °F 100% 30.08 in 1.2 mi East 3.5 mph - N/A Rain Light Rain
1:57 AM 66.2 °F 66.2 °F 100% 30.08 in 1.5 mi East 4.6 mph - N/A Rain Light Rain
2:00 AM 66.2 °F 66.2 °F 100% 30.08 in 1.8 mi East 4.6 mph - N/A Rain Light Rain
2:02 AM 66.2 °F 66.2 °F 100% 30.08 in 2.0 mi East 4.6 mph - N/A Rain Light Rain
2:12 AM 66.2 °F 66.2 °F 100% 30.08 in 2.5 mi ENE 3.5 mph - N/A Rain Light Rain
2:14 AM 66.2 °F 66.2 °F 100% 30.08 in 3.0 mi East 3.5 mph - N/A   Light Drizzle
2:17 AM 66.2 °F 66.2 °F 100% 30.08 in 3.0 mi East 3.5 mph - N/A   Overcast
2:46 AM 66.2 °F 66.2 °F 100% 30.07 in 5.0 mi East 3.5 mph - N/A   Overcast
2:55 AM 66.2 °F 66.2 °F 100% 30.07 in 6.0 mi East 3.5 mph - N/A   Overcast
3:33 AM 66.2 °F 66.2 °F 100% 30.07 in 3.0 mi NE 3.5 mph - N/A   Overcast
3:35 AM 66.2 °F 66.2 °F 100% 30.06 in 2.5 mi NE 3.5 mph - N/A   Overcast
3:36 AM 66.2 °F 66.2 °F 100% 30.06 in 3.0 mi NE 3.5 mph - N/A   Overcast
3:49 AM 66.2 °F 66.2 °F 100% 30.06 in 2.5 mi Calm Calm - N/A   Overcast
3:54 AM 66.2 °F 66.2 °F 100% 30.06 in 3.0 mi East 3.5 mph - N/A   Overcast
3:55 AM 65.8 °F 65.8 °F 100% 30.06 in 3.0 mi Calm Calm - N/A   Overcast
4:02 AM 66.2 °F 66.2 °F 100% 30.06 in 2.5 mi NE 3.5 mph - N/A   Overcast
4:10 AM 66.2 °F 66.2 °F 100% 30.06 in 3.0 mi Calm Calm - N/A   Overcast
4:47 AM 66.2 °F 66.2 °F 100% 30.06 in 5.0 mi Calm Calm - N/A   Overcast
4:50 AM 66.2 °F 66.2 °F 100% 30.06 in 5.0 mi ESE 3.5 mph - N/A   Overcast
4:55 AM 65.8 °F 65.8 °F 100% 30.06 in 4.0 mi ESE 3.5 mph - N/A   Overcast
5:11 AM 66.2 °F 66.2 °F 100% 30.06 in 2.5 mi SE 3.5 mph - N/A   Overcast
5:21 AM 66.2 °F 66.2 °F 100% 30.07 in 2.5 mi Calm Calm - N/A   Overcast
5:26 AM 66.2 °F 66.2 °F 100% 30.07 in 1.8 mi East 3.5 mph - N/A   Overcast
5:27 AM 66.2 °F 66.2 °F 100% 30.07 in 1.5 mi East 3.5 mph - N/A   Overcast
5:31 AM 66.2 °F 66.2 °F 100% 30.07 in 1.2 mi ENE 4.6 mph - N/A   Overcast
5:43 AM 66.2 °F 66.2 °F 100% 30.07 in 1.5 mi East 4.6 mph - N/A   Overcast
5:45 AM 66.2 °F 66.2 °F 100% 30.07 in 1.2 mi East 4.6 mph - N/A   Overcast
5:47 AM 66.2 °F 66.2 °F 100% 30.07 in 1.0 mi ENE 4.6 mph - N/A   Mist
5:49 AM 66.2 °F 66.2 °F 100% 30.07 in 0.8 mi East 3.5 mph - N/A   Mist
5:53 AM 66.2 °F 66.2 °F 100% 30.08 in 0.5 mi Calm Calm - N/A Fog Fog
5:54 AM 66.2 °F 66.2 °F 100% 30.08 in 0.5 mi Calm Calm - N/A Fog Fog
5:55 AM 65.5 °F 65.5 °F 100% 30.08 in 0.5 mi Calm Calm - N/A Fog Fog
6:52 AM 66.2 °F 66.2 °F 100% 30.08 in 0.5 mi East 3.5 mph - N/A Fog Fog
6:53 AM 66.2 °F 66.2 °F 100% 30.08 in 0.5 mi East 3.5 mph - N/A Fog Fog
6:54 AM 66.2 °F 66.2 °F 100% 30.08 in 0.8 mi Calm Calm - N/A   Mist
6:55 AM 65.5 °F 65.5 °F 100% 30.08 in 0.8 mi Calm Calm - N/A   Mist
7:01 AM 66.2 °F 66.2 °F 100% 30.08 in 0.5 mi East 3.5 mph - N/A Fog Fog
7:04 AM 66.2 °F 66.2 °F 100% 30.08 in 0.2 mi ENE 3.5 mph - N/A Fog Fog
7:05 AM 66.2 °F 66.2 °F 100% 30.08 in 0.2 mi ENE 3.5 mph - N/A Fog Fog
7:09 AM 66.2 °F 66.2 °F 100% 30.08 in 0.2 mi Calm Calm - N/A Fog Fog
7:14 AM 66.2 °F 66.2 °F 100% 30.09 in 0.2 mi Calm Calm - N/A Fog Fog
7:36 AM 66.2 °F 66.2 °F 100% 30.09 in 0.2 mi Calm Calm - N/A Fog Light Drizzle
7:43 AM 66.2 °F 66.2 °F 100% 30.10 in 0.2 mi Calm Calm - N/A Fog , Rain Light Rain
7:47 AM 66.2 °F 66.2 °F 100% 30.09 in 0.2 mi Calm Calm - N/A Fog , Rain Light Rain
7:50 AM 66.2 °F 66.2 °F 100% 30.09 in 0.2 mi East 3.5 mph - N/A Fog Light Drizzle
7:53 AM 66.2 °F 66.2 °F 100% 30.10 in 0.2 mi Calm Calm - N/A Fog Fog
7:55 AM 65.7 °F 65.7 °F 100% 30.10 in 0.5 mi Calm Calm - N/A Fog Fog
7:58 AM 66.2 °F 66.2 °F 100% 30.10 in 0.5 mi Calm Calm - N/A Fog Fog
8:02 AM 66.2 °F 66.2 °F 100% 30.10 in 0.8 mi Calm Calm - N/A   Mist
8:05 AM 66.2 °F 66.2 °F 100% 30.10 in 0.8 mi Calm Calm - N/A   Mist
8:11 AM 66.2 °F 66.2 °F 100% 30.10 in 1.0 mi Calm Calm - N/A   Mist
8:19 AM 66.2 °F 66.2 °F 100% 30.10 in 1.0 mi Calm Calm - N/A   Mist
8:21 AM 66.2 °F 66.2 °F 100% 30.10 in 1.0 mi Calm Calm - N/A   Mist
8:24 AM 66.2 °F 66.2 °F 100% 30.11 in 1.0 mi Calm Calm - N/A   Light Drizzle
8:28 AM 66.2 °F 66.2 °F 100% 30.11 in 1.2 mi North 3.5 mph - N/A   Light Drizzle
8:29 AM 66.2 °F 66.2 °F 100% 30.11 in 1.0 mi Variable 3.5 mph - N/A   Light Drizzle
8:32 AM 66.2 °F 66.2 °F 100% 30.11 in 0.8 mi Calm Calm - N/A Rain Light Rain
8:37 AM 66.2 °F 66.2 °F 100% 30.11 in 0.5 mi North 5.8 mph - N/A Fog , Rain Heavy Rain
8:39 AM 66.2 °F 66.2 °F 100% 30.11 in 0.5 mi Calm Calm - N/A Fog , Rain Heavy Rain
8:40 AM 66.2 °F 66.2 °F 100% 30.11 in 0.5 mi Variable 3.5 mph - N/A Fog , Rain Heavy Rain
8:41 AM 66.2 °F 66.2 °F 100% 30.11 in 0.5 mi Variable 4.6 mph - N/A Fog , Rain Heavy Rain
8:43 AM 64.4 °F 64.4 °F 100% 30.11 in 0.5 mi NNE 4.6 mph - N/A Fog , Rain Heavy Rain
8:50 AM 64.4 °F 64.4 °F 100% 30.12 in 0.8 mi NE 6.9 mph - N/A Rain Heavy Rain
8:55 AM 64.9 °F 64.9 °F 100% 30.12 in 0.8 mi NE 6.9 mph - N/A Rain Light Rain
8:56 AM 64.4 °F 64.4 °F 100% 30.12 in 1.0 mi NE 5.8 mph - N/A Rain Light Rain
8:57 AM 64.4 °F 64.4 °F 100% 30.12 in 1.2 mi NE 4.6 mph - N/A Rain Light Rain
8:58 AM 64.4 °F 64.4 °F 100% 30.12 in 1.8 mi Variable 4.6 mph - N/A Rain Light Rain
8:59 AM 64.4 °F 64.4 °F 100% 30.12 in 2.0 mi NNE 4.6 mph - N/A Rain Light Rain
9:00 AM 64.4 °F 64.4 °F 100% 30.12 in 2.5 mi NNE 5.8 mph - N/A Rain Light Rain
9:07 AM 64.4 °F 64.4 °F 100% 30.12 in 1.8 mi NE 8.1 mph - N/A   Light Drizzle
9:08 AM 64.4 °F 64.4 °F 100% 30.12 in 1.2 mi NE 6.9 mph - N/A   Light Drizzle
9:10 AM 64.4 °F 64.4 °F 100% 30.12 in 1.0 mi NE 8.1 mph - N/A   Light Drizzle
9:11 AM 64.4 °F 64.4 °F 100% 30.12 in 0.8 mi NE 8.1 mph - N/A   Light Drizzle
9:14 AM 64.4 °F 64.4 °F 100% 30.12 in 0.5 mi NE 6.9 mph - N/A Fog Fog
9:16 AM 64.4 °F 64.4 °F 100% 30.12 in 0.5 mi NE 8.1 mph - N/A Fog Fog
9:24 AM 64.4 °F 64.4 °F 100% 30.12 in 0.5 mi NE 5.8 mph - N/A Fog Fog
9:43 AM 64.4 °F 64.4 °F 100% 30.12 in 0.5 mi NE 8.1 mph - N/A Fog Fog
9:46 AM 64.4 °F 64.4 °F 100% 30.12 in 0.8 mi Variable 5.8 mph - N/A   Mist
9:48 AM 64.4 °F 64.4 °F 100% 30.12 in 1.0 mi NE 6.9 mph - N/A   Mist
9:51 AM 64.4 °F 64.4 °F 100% 30.13 in 1.2 mi NE 5.8 mph - N/A   Overcast
9:53 AM 64.4 °F 64.4 °F 100% 30.13 in 1.0 mi NE 6.9 mph - N/A   Mist
9:55 AM 64.6 °F 64.6 °F 100% 30.13 in 0.8 mi NE 8.1 mph - N/A   Mist
9:58 AM 64.4 °F 64.4 °F 100% 30.13 in 0.8 mi NE 5.8 mph - N/A   Mist
9:59 AM 64.4 °F 64.4 °F 100% 30.13 in 0.5 mi NNE 5.8 mph - N/A Fog Fog
10:04 AM 64.4 °F 64.4 °F 100% 30.13 in 0.8 mi NE 6.9 mph - N/A   Mist
10:08 AM 64.4 °F 64.4 °F 100% 30.13 in 1.0 mi NE 8.1 mph - N/A   Mist
10:10 AM 64.4 °F 64.4 °F 100% 30.13 in 1.2 mi NE 6.9 mph - N/A   Overcast
10:12 AM 64.4 °F 64.4 °F 100% 30.13 in 1.5 mi NE 5.8 mph - N/A   Overcast
10:13 AM 64.4 °F 64.4 °F 100% 30.14 in 1.5 mi NE 4.6 mph - N/A   Overcast
10:14 AM 64.4 °F 64.4 °F 100% 30.13 in 1.8 mi NE 4.6 mph - N/A   Overcast
10:16 AM 64.4 °F 64.4 °F 100% 30.13 in 2.0 mi NE 6.9 mph - N/A   Overcast
10:30 AM 64.4 °F 64.4 °F 100% 30.14 in 3.0 mi NE 8.1 mph - N/A   Overcast
10:39 AM 64.4 °F 64.4 °F 100% 30.14 in 6.0 mi NE 5.8 mph - N/A   Overcast
10:55 AM 63.9 °F 63.9 °F 100% 30.14 in 2.5 mi NE 6.9 mph - N/A   Overcast
10:58 AM 64.4 °F 64.4 °F 100% 30.14 in 3.0 mi NE 8.1 mph - N/A   Overcast
11:09 AM 64.4 °F 64.4 °F 100% 30.14 in 1.8 mi NNE 8.1 mph - N/A   Overcast
11:10 AM 64.4 °F 64.4 °F 100% 30.14 in 1.0 mi NNE 9.2 mph - N/A   Mist
11:11 AM 64.4 °F 64.4 °F 100% 30.14 in 0.8 mi NNE 9.2 mph - N/A   Mist
11:12 AM 64.4 °F 64.4 °F 100% 30.14 in 0.5 mi NNE 8.1 mph - N/A Fog Fog
11:13 AM 64.4 °F 64.4 °F 100% 30.14 in 0.5 mi North 6.9 mph - N/A Fog Fog
11:14 AM 64.4 °F 64.4 °F 100% 30.14 in 0.2 mi NNE 5.8 mph - N/A Fog Fog
11:16 AM 62.6 °F 62.6 °F 100% 30.14 in 0.2 mi NNE 6.9 mph - N/A Fog Fog
11:17 AM 62.6 °F 62.6 °F 100% 30.14 in 0.2 mi NNE 6.9 mph - N/A Fog Fog
11:18 AM 62.6 °F 62.6 °F 100% 30.14 in 0.2 mi NNE 6.9 mph - N/A Fog Fog
11:20 AM 62.6 °F 62.6 °F 100% 30.14 in 0.2 mi NNE 9.2 mph - N/A Fog Fog
11:29 AM 62.6 °F 62.6 °F 100% 30.14 in 0.2 mi NNE 8.1 mph - N/A Fog Fog
11:55 AM 61.7 °F 61.7 °F 100% 30.13 in 0.2 mi NE 5.8 mph - N/A Fog Fog
12:00 PM 60.8 °F 60.8 °F 100% 30.13 in 0.2 mi NE 9.2 mph - N/A Fog Fog
12:01 PM 60.8 °F 60.8 °F 100% 30.13 in 0.2 mi NE 9.2 mph - N/A Fog Fog
12:03 PM 60.8 °F 60.8 °F 100% 30.13 in 0.2 mi NE 8.1 mph - N/A Fog Fog
12:04 PM 60.8 °F 60.8 °F 100% 30.13 in 0.5 mi NE 8.1 mph - N/A Fog Fog
12:07 PM 62.6 °F 62.6 °F 100% 30.13 in 0.8 mi NE 8.1 mph - N/A   Mist
12:08 PM 62.6 °F 62.6 °F 100% 30.13 in 1.0 mi NE 8.1 mph - N/A   Mist
12:09 PM 62.6 °F 62.6 °F 100% 30.13 in 1.2 mi NE 9.2 mph - N/A   Overcast
12:10 PM 62.6 °F 62.6 °F 100% 30.13 in 1.5 mi ENE 8.1 mph - N/A   Overcast
12:11 PM 62.6 °F 62.6 °F 100% 30.13 in 2.0 mi NE 6.9 mph - N/A   Overcast
12:13 PM 62.6 °F 62.6 °F 100% 30.13 in 3.0 mi NE 9.2 mph - N/A   Overcast
12:15 PM 62.6 °F 62.6 °F 100% 30.13 in 3.0 mi NE 8.1 mph - N/A   Overcast
12:28 PM 62.6 °F 62.6 °F 100% 30.14 in 6.0 mi NE 9.2 mph - N/A   Overcast
12:34 PM 62.6 °F 62.6 °F 100% 30.13 in 7.0 mi NNE 8.1 mph - N/A   Overcast
12:46 PM 62.6 °F 62.6 °F 100% 30.13 in 7.0 mi NE 6.9 mph - N/A   Overcast
12:55 PM 62.2 °F 62.2 °F 100% 30.13 in 8.0 mi NE 8.1 mph - N/A   Overcast
1:08 PM 62.6 °F 62.6 °F 100% 30.13 in 10.0 mi ENE 8.1 mph - N/A   Overcast
1:16 PM 62.6 °F 62.6 °F 100% 30.13 in 10.0 mi ENE 8.1 mph - N/A   Overcast
1:32 PM 64.4 °F 62.6 °F 94% 30.12 in 10.0 mi ENE 6.9 mph - N/A   Overcast
1:55 PM 65.1 °F 62.4 °F 91% 30.10 in 10.0 mi NE 9.2 mph - N/A   Overcast
2:55 PM 65.5 °F 62.6 °F 90% 30.10 in 10.0 mi Variable 4.6 mph - N/A   Overcast
3:12 PM 66.2 °F 62.6 °F 88% 30.09 in 10.0 mi NE 6.9 mph - N/A   Overcast
3:21 PM 66.2 °F 62.6 °F 88% 30.10 in 10.0 mi NNE 6.9 mph - N/A   Overcast
3:39 PM 66.2 °F 62.6 °F 88% 30.09 in 10.0 mi NNE 5.8 mph - N/A   Overcast
3:55 PM 66.9 °F 61.9 °F 84% 30.08 in 10.0 mi North 6.9 mph - N/A   Overcast
4:33 PM 66.2 °F 60.8 °F 83% 30.07 in 10.0 mi NE 5.8 mph - N/A   Scattered Clouds
4:55 PM 66.0 °F 59.7 °F 80% 30.07 in 10.0 mi NE 8.1 mph - N/A   Clear
5:55 PM 65.5 °F 58.5 °F 78% 30.07 in 10.0 mi ENE 8.1 mph - N/A   Clear
6:22 PM 64.4 °F 59.0 °F 83% 30.08 in 10.0 mi NNE 4.6 mph - N/A   Light Drizzle
6:31 PM 64.4 °F 59.0 °F 83% 30.07 in 10.0 mi NE 4.6 mph - N/A   Partly Cloudy
6:55 PM 62.4 °F 58.3 °F 86% 30.07 in 10.0 mi NNE 3.5 mph - 0.00 in   Scattered Clouds
7:55 PM 60.3 °F 58.1 °F 93% 30.09 in 10.0 mi North 3.5 mph - N/A   Clear
8:55 PM 59.9 °F 57.2 °F 91% 30.09 in 6.0 mi NNE 3.5 mph - N/A   Clear
9:23 PM 59.0 °F 57.2 °F 94% 30.10 in 2.5 mi Calm Calm - N/A   Clear
9:26 PM 59.0 °F 57.2 °F 94% 30.10 in 3.0 mi Calm Calm - N/A   Clear
9:55 PM 58.3 °F 57.7 °F 98% 30.11 in 10.0 mi East 3.5 mph - N/A   Clear
10:55 PM 55.8 °F 55.8 °F 100% 30.12 in 10.0 mi Calm Calm - N/A   Clear
11:55 PM 54.3 °F 54.3 °F 100% 30.13 in 10.0 mi Calm Calm - N/A   Clear